Tracking 34403 objects as of 13-Jun-2026
HD Live streaming from Space Station
objects crossing your sky now

SRH2

Track SRH2 now!
10-day predictions


NORAD ID: 58643
Int'l Code: 2023-204A
Perigee: 509.4 km
Apogee: 513.6 km
Inclination: 88.2 °
Period: 94.7 minutes
Semi major axis: 6882 km
RCS: Unknown
Launch date: December 24, 2023
Source: Germany (GER)
Launch site: AIR FORCE WESTERN TEST RANGE (AFWTR)
Your satellite tracking list
Your tracking list is empty




NASA's NSSDC Master Catalog

Two Line Element Set (TLE):
1 58643U 23204A   26107.83696058 0.00000000  00000-0  00000-0 0    01
2 58643  88.2096 151.0362 0003000 303.6077  56.3921 15.20488900    01
Source of the keplerian elements: McCants